Time,TemperatureF,DewpointF,PressureIn,WindDirection,WindDirectionDegrees,WindSpeedMPH,WindSpeedGustMPH,Humidity,HourlyPrecipIn,Conditions,Clouds,dailyrainin,SoftwareType,DateUTC
2013-05-09 00:03:00,62.0,59.0,29.96,WSW,254,0.0,1.0,90,0.00,,,0.00,,2013-05-09 04:03:00,
2013-05-09 00:13:00,62.0,59.0,29.96,WSW,254,0.0,1.0,90,0.00,,,0.00,,2013-05-09 04:13:00,
2013-05-09 00:23:00,62.0,58.0,29.96,WSW,254,0.0,0.0,88,0.00,,,0.00,,2013-05-09 04:23:00,
2013-05-09 00:33:00,61.0,58.0,29.96,WSW,254,0.0,0.0,89,0.00,,,0.00,,2013-05-09 04:33:00,
2013-05-09 00:43:00,61.0,58.0,29.96,WSW,254,0.0,0.0,89,0.00,,,0.00,,2013-05-09 04:43:00,
2013-05-09 00:52:00,61.0,57.0,29.97,WSW,254,0.0,0.0,88,0.00,,,0.00,,2013-05-09 04:52:00,
2013-05-09 01:02:00,60.0,57.0,29.97,WSW,254,3.0,5.0,91,0.00,,,0.00,,2013-05-09 05:02:00,
2013-05-09 01:12:00,60.0,57.0,29.97,WSW,254,3.0,5.0,91,0.00,,,0.00,,2013-05-09 05:12:00,
2013-05-09 01:22:00,60.0,56.0,29.96,WSW,254,0.0,1.0,86,0.00,,,0.00,,2013-05-09 05:22:00,
2013-05-09 01:32:00,59.0,55.0,29.96,WSW,254,0.0,1.0,87,0.00,,,0.00,,2013-05-09 05:32:00,
2013-05-09 01:42:00,59.0,55.0,29.96,WSW,254,0.0,1.0,87,0.00,,,0.00,,2013-05-09 05:42:00,
2013-05-09 01:51:00,59.0,55.0,29.96,WSW,254,0.0,0.0,88,0.00,,,0.00,,2013-05-09 05:51:00,
2013-05-09 02:02:00,58.0,55.0,29.96,WSW,254,0.0,0.0,90,0.00,,,0.00,,2013-05-09 06:02:00,
2013-05-09 02:12:00,58.0,55.0,29.96,WSW,254,0.0,0.0,90,0.00,,,0.00,,2013-05-09 06:12:00,
2013-05-09 02:21:00,57.0,54.0,29.96,WSW,254,0.0,1.0,90,0.00,,,0.00,,2013-05-09 06:21:00,
2013-05-09 02:32:00,56.0,53.0,29.96,WSW,254,0.0,2.0,91,0.00,,,0.00,,2013-05-09 06:32:00,
2013-05-09 02:42:00,56.0,53.0,29.96,WSW,254,0.0,2.0,91,0.00,,,0.00,,2013-05-09 06:42:00,
2013-05-09 02:52:00,56.0,53.0,29.95,WSW,254,0.0,2.0,90,0.00,,,0.00,,2013-05-09 06:52:00,
2013-05-09 03:01:00,57.0,54.0,29.95,WSW,254,0.0,4.0,89,0.00,,,0.00,,2013-05-09 07:01:00,
2013-05-09 03:12:00,57.0,54.0,29.95,WSW,254,0.0,4.0,89,0.00,,,0.00,,2013-05-09 07:12:00,
2013-05-09 03:21:00,56.0,52.0,29.94,WSW,254,0.0,2.0,88,0.00,,,0.00,,2013-05-09 07:21:00,
2013-05-09 03:32:00,56.0,52.0,29.94,WSW,254,0.0,2.0,87,0.00,,,0.00,,2013-05-09 07:32:00,
2013-05-09 03:42:00,56.0,52.0,29.94,WSW,254,0.0,2.0,87,0.00,,,0.00,,2013-05-09 07:42:00,
2013-05-09 03:52:00,56.0,53.0,29.94,WSW,254,0.0,0.0,89,0.00,,,0.00,,2013-05-09 07:52:00,
2013-05-09 04:02:00,56.0,52.0,29.94,WSW,254,0.0,0.0,88,0.00,,,0.00,,2013-05-09 08:02:00,
2013-05-09 04:11:00,56.0,52.0,29.94,WSW,254,0.0,0.0,88,0.00,,,0.00,,2013-05-09 08:11:00,
2013-05-09 04:21:00,56.0,52.0,29.94,WSW,254,0.0,0.0,87,0.00,,,0.00,,2013-05-09 08:21:00,
2013-05-09 04:32:00,55.0,52.0,29.94,WSW,254,0.0,0.0,88,0.00,,,0.00,,2013-05-09 08:32:00,
2013-05-09 04:42:00,55.0,52.0,29.94,WSW,254,0.0,0.0,88,0.00,,,0.00,,2013-05-09 08:42:00,
2013-05-09 04:52:00,54.0,51.0,29.95,WSW,254,0.0,0.0,91,0.00,,,0.00,,2013-05-09 08:52:00,
2013-05-09 05:02:00,54.0,52.0,29.95,WSW,254,0.0,0.0,92,0.00,,,0.00,,2013-05-09 09:02:00,
2013-05-09 05:11:00,54.0,52.0,29.95,WSW,254,0.0,0.0,92,0.00,,,0.00,,2013-05-09 09:11:00,
2013-05-09 05:21:00,54.0,52.0,29.95,WSW,254,0.0,0.0,93,0.00,,,0.00,,2013-05-09 09:21:00,
2013-05-09 05:32:00,53.0,51.0,29.95,WSW,254,0.0,0.0,93,0.00,,,0.00,,2013-05-09 09:32:00,
2013-05-09 05:43:00,53.0,51.0,29.95,WSW,254,0.0,0.0,93,0.00,,,0.00,,2013-05-09 09:43:00,
2013-05-09 05:53:00,53.0,51.0,29.95,WSW,254,0.0,0.0,94,0.00,,,0.00,,2013-05-09 09:53:00,
2013-05-09 06:02:00,53.0,51.0,29.96,WSW,254,0.0,0.0,94,0.00,,,0.00,,2013-05-09 10:02:00,
2013-05-09 06:12:00,52.0,50.0,29.96,WSW,254,0.0,0.0,94,0.00,,,0.00,,2013-05-09 10:12:00,
2013-05-09 06:23:00,52.0,50.0,29.96,WSW,254,0.0,0.0,94,0.00,,,0.00,,2013-05-09 10:23:00,
2013-05-09 06:33:00,52.0,50.0,29.97,WSW,254,0.0,0.0,94,0.00,,,0.00,,2013-05-09 10:33:00,
2013-05-09 06:42:00,52.0,50.0,29.97,WSW,254,0.0,0.0,94,0.00,,,0.00,,2013-05-09 10:42:00,
2013-05-09 06:52:00,51.0,50.0,29.97,WSW,254,0.0,0.0,95,0.00,,,0.00,,2013-05-09 10:52:00,
2013-05-09 07:02:00,51.0,50.0,29.97,WSW,254,0.0,0.0,95,0.00,,,0.00,,2013-05-09 11:02:00,
2013-05-09 07:12:00,51.0,50.0,29.97,WSW,254,0.0,0.0,95,0.00,,,0.00,,2013-05-09 11:12:00,
2013-05-09 07:22:00,51.0,50.0,29.97,WSW,254,0.0,0.0,96,0.00,,,0.00,,2013-05-09 11:22:00,
2013-05-09 07:32:00,52.0,51.0,29.98,WSW,254,0.0,0.0,96,0.00,,,0.00,,2013-05-09 11:32:00,
2013-05-09 07:42:00,52.0,51.0,29.98,WSW,254,0.0,0.0,96,0.00,,,0.00,,2013-05-09 11:42:00,
2013-05-09 07:51:00,52.0,51.0,29.98,WSW,254,0.0,0.0,96,0.00,,,0.00,,2013-05-09 11:51:00,
2013-05-09 08:01:00,53.0,52.0,29.98,WSW,254,0.0,0.0,97,0.00,,,0.00,,2013-05-09 12:01:00,
2013-05-09 08:11:00,54.0,53.0,29.98,WSW,254,0.0,0.0,97,0.00,,,0.00,,2013-05-09 12:11:00,
2013-05-09 08:22:00,54.0,53.0,29.98,WSW,254,0.0,0.0,97,0.00,,,0.00,,2013-05-09 12:22:00,
2013-05-09 08:32:00,57.0,56.0,29.97,WSW,254,0.0,3.0,95,0.00,,,0.00,,2013-05-09 12:32:00,
2013-05-09 08:42:00,57.0,56.0,29.97,WSW,254,0.0,3.0,95,0.00,,,0.00,,2013-05-09 12:42:00,
2013-05-09 08:52:00,59.0,56.0,29.98,WSW,254,0.0,3.0,91,0.00,,,0.00,,2013-05-09 12:52:00,
2013-05-09 09:01:00,61.0,56.0,29.98,West,271,0.0,4.0,84,0.00,,,0.00,,2013-05-09 13:01:00,
2013-05-09 09:12:00,61.0,56.0,29.98,West,271,0.0,4.0,84,0.00,,,0.00,,2013-05-09 13:12:00,
2013-05-09 09:22:00,64.0,58.0,29.97,West,273,0.0,4.0,81,0.00,,,0.00,,2013-05-09 13:22:00,
2013-05-09 09:32:00,66.0,59.0,29.97,West,269,0.0,3.0,77,0.00,,,0.00,,2013-05-09 13:32:00,
2013-05-09 09:42:00,66.0,59.0,29.97,West,269,0.0,3.0,77,0.00,,,0.00,,2013-05-09 13:42:00,
2013-05-09 09:52:00,68.0,57.0,29.97,West,269,0.0,3.0,69,0.00,,,0.00,,2013-05-09 13:52:00,
2013-05-09 10:02:00,70.0,60.0,29.97,West,275,0.0,5.0,70,0.00,,,0.00,,2013-05-09 14:02:00,
2013-05-09 10:11:00,70.0,60.0,29.97,West,275,0.0,5.0,70,0.00,,,0.00,,2013-05-09 14:11:00,
2013-05-09 10:22:00,71.0,57.0,29.96,WNW,282,0.0,4.0,62,0.00,,,0.00,,2013-05-09 14:22:00,
2013-05-09 10:32:00,73.0,59.0,29.96,NW,323,0.0,4.0,61,0.00,,,0.00,,2013-05-09 14:32:00,
2013-05-09 10:42:00,73.0,59.0,29.96,NW,323,0.0,4.0,61,0.00,,,0.00,,2013-05-09 14:42:00,
2013-05-09 10:52:00,73.0,56.0,29.96,NNE,18,0.0,4.0,56,0.00,,,0.00,,2013-05-09 14:52:00,
2013-05-09 11:02:00,74.0,55.0,29.96,WSW,258,1.0,5.0,52,0.00,,,0.00,,2013-05-09 15:02:00,
2013-05-09 11:11:00,74.0,55.0,29.96,WSW,258,1.0,5.0,52,0.00,,,0.00,,2013-05-09 15:11:00,
2013-05-09 11:22:00,75.0,56.0,29.96,SW,229,0.0,3.0,52,0.00,,,0.00,,2013-05-09 15:22:00,
2013-05-09 11:33:00,76.0,55.0,29.96,SW,229,3.0,7.0,49,0.00,,,0.00,,2013-05-09 15:33:00,
2013-05-09 11:43:00,76.0,53.0,29.97,SSW,204,4.0,7.0,45,0.00,,,0.00,,2013-05-09 15:43:00,
2013-05-09 11:53:00,76.0,53.0,29.97,SSW,204,4.0,7.0,45,0.00,,,0.00,,2013-05-09 15:53:00,
2013-05-09 12:03:00,77.0,55.0,29.97,West,269,1.0,6.0,46,0.00,,,0.00,,2013-05-09 16:03:00,
2013-05-09 12:12:00,77.0,55.0,29.97,West,269,1.0,6.0,46,0.00,,,0.00,,2013-05-09 16:12:00,
2013-05-09 12:23:00,78.0,53.0,29.96,SW,225,0.0,6.0,42,0.00,,,0.00,,2013-05-09 16:23:00,
2013-05-09 12:33:00,78.0,54.0,29.97,WSW,252,0.0,3.0,44,0.00,,,0.00,,2013-05-09 16:33:00,
2013-05-09 12:42:00,78.0,54.0,29.97,WSW,252,0.0,3.0,44,0.00,,,0.00,,2013-05-09 16:42:00,
2013-05-09 12:52:00,78.0,55.0,29.97,WSW,251,0.0,4.0,45,0.00,,,0.00,,2013-05-09 16:52:00,
2013-05-09 13:02:00,79.0,53.0,29.96,WNW,286,1.0,6.0,41,0.00,,,0.00,,2013-05-09 17:02:00,
2013-05-09 13:12:00,79.0,53.0,29.96,WNW,286,1.0,6.0,41,0.00,,,0.00,,2013-05-09 17:12:00,
2013-05-09 13:22:00,78.0,54.0,29.96,West,259,2.0,8.0,43,0.00,,,0.00,,2013-05-09 17:22:00,
2013-05-09 13:32:00,78.0,52.0,29.96,West,260,3.0,7.0,41,0.00,,,0.00,,2013-05-09 17:32:00,
2013-05-09 13:42:00,78.0,52.0,29.96,West,260,3.0,7.0,41,0.00,,,0.00,,2013-05-09 17:42:00,
2013-05-09 13:55:00,78.0,54.0,29.96,SW,221,2.0,6.0,43,0.00,,,0.00,,2013-05-09 17:55:00,
2013-05-09 14:01:00,78.0,52.0,29.95,SSW,209,0.0,7.0,41,0.00,,,0.00,,2013-05-09 18:01:00,
2013-05-09 14:12:00,78.0,52.0,29.95,SSW,209,0.0,7.0,41,0.00,,,0.00,,2013-05-09 18:12:00,
2013-05-09 14:22:00,79.0,47.0,29.95,WSW,253,4.0,7.0,33,0.00,,,0.00,,2013-05-09 18:22:00,
2013-05-09 14:32:00,80.0,51.0,29.94,WNW,298,0.0,7.0,37,0.00,,,0.00,,2013-05-09 18:32:00,
2013-05-09 14:42:00,80.0,51.0,29.94,WNW,298,0.0,7.0,37,0.00,,,0.00,,2013-05-09 18:42:00,
2013-05-09 14:52:00,81.0,49.0,29.94,SSW,198,2.0,8.0,33,0.00,,,0.00,,2013-05-09 18:52:00,
2013-05-09 15:01:00,81.0,46.0,29.93,SW,224,2.0,10.0,29,0.00,,,0.00,,2013-05-09 19:01:00,
2013-05-09 15:12:00,81.0,46.0,29.93,SW,224,2.0,10.0,29,0.00,,,0.00,,2013-05-09 19:12:00,
2013-05-09 15:21:00,81.0,48.0,29.93,West,264,1.0,8.0,32,0.00,,,0.00,,2013-05-09 19:21:00,
2013-05-09 15:32:00,80.0,46.0,29.93,WSW,243,4.0,8.0,30,0.00,,,0.00,,2013-05-09 19:32:00,
2013-05-09 15:42:00,80.0,46.0,29.93,WSW,243,4.0,8.0,30,0.00,,,0.00,,2013-05-09 19:42:00,
2013-05-09 15:52:00,80.0,44.0,29.93,South,182,3.0,8.0,28,0.00,,,0.00,,2013-05-09 19:52:00,
2013-05-09 16:01:00,80.0,46.0,29.92,WSW,252,3.0,12.0,30,0.00,,,0.00,,2013-05-09 20:01:00,
2013-05-09 16:11:00,80.0,46.0,29.92,WSW,252,3.0,12.0,30,0.00,,,0.00,,2013-05-09 20:11:00,
2013-05-09 16:22:00,80.0,44.0,29.91,SSW,209,3.0,10.0,28,0.00,,,0.00,,2013-05-09 20:22:00,
2013-05-09 16:32:00,81.0,49.0,29.91,West,281,2.0,9.0,33,0.00,,,0.00,,2013-05-09 20:32:00,
2013-05-09 16:42:00,81.0,47.0,29.90,WSW,252,4.0,7.0,30,0.00,,,0.00,,2013-05-09 20:42:00,
2013-05-09 16:52:00,81.0,47.0,29.90,WSW,252,4.0,7.0,30,0.00,,,0.00,,2013-05-09 20:52:00,
2013-05-09 17:02:00,81.0,52.0,29.89,SSW,200,0.0,4.0,36,0.00,,,0.00,,2013-05-09 21:02:00,
2013-05-09 17:12:00,81.0,52.0,29.89,SSW,200,0.0,4.0,36,0.00,,,0.00,,2013-05-09 21:12:00,
2013-05-09 17:22:00,81.0,49.0,29.89,WNW,294,2.0,7.0,33,0.00,,,0.00,,2013-05-09 21:22:00,
2013-05-09 17:32:00,80.0,49.0,29.89,West,262,1.0,6.0,34,0.00,,,0.00,,2013-05-09 21:32:00,
2013-05-09 17:43:00,79.0,51.0,29.89,South,179,0.0,7.0,38,0.00,,,0.00,,2013-05-09 21:43:00,
2013-05-09 17:53:00,79.0,51.0,29.89,South,179,0.0,7.0,38,0.00,,,0.00,,2013-05-09 21:53:00,
2013-05-09 18:03:00,79.0,53.0,29.89,WSW,258,1.0,5.0,40,0.00,,,0.00,,2013-05-09 22:03:00,
2013-05-09 18:13:00,78.0,53.0,29.90,SW,232,1.0,7.0,42,0.00,,,0.00,,2013-05-09 22:13:00,
2013-05-09 18:23:00,78.0,53.0,29.90,SW,232,1.0,7.0,42,0.00,,,0.00,,2013-05-09 22:23:00,
2013-05-09 18:33:00,78.0,54.0,29.89,SW,217,0.0,4.0,44,0.00,,,0.00,,2013-05-09 22:33:00,
2013-05-09 18:42:00,77.0,53.0,29.90,SW,231,0.0,4.0,44,0.00,,,0.00,,2013-05-09 22:42:00,
2013-05-09 18:52:00,77.0,53.0,29.90,SW,231,0.0,4.0,44,0.00,,,0.00,,2013-05-09 22:52:00,
2013-05-09 19:02:00,75.0,53.0,29.91,SW,227,6.0,16.0,46,0.00,,,0.00,,2013-05-09 23:02:00,
2013-05-09 19:12:00,75.0,53.0,29.91,SW,227,6.0,16.0,46,0.00,,,0.00,,2013-05-09 23:12:00,
2013-05-09 19:22:00,73.0,53.0,29.91,WSW,251,5.0,15.0,50,0.00,,,0.00,,2013-05-09 23:22:00,
2013-05-09 19:32:00,72.0,53.0,29.91,SSW,209,7.0,16.0,51,0.00,,,0.00,,2013-05-09 23:32:00,
2013-05-09 19:42:00,72.0,53.0,29.91,SSW,209,7.0,16.0,51,0.00,,,0.00,,2013-05-09 23:42:00,
2013-05-09 19:52:00,71.0,57.0,29.92,SSW,206,6.0,12.0,61,0.00,,,0.00,,2013-05-09 23:52:00,
2013-05-09 20:01:00,66.0,59.0,29.92,SW,225,2.0,9.0,77,0.02,,,0.02,,2013-05-10 00:01:00,
2013-05-09 20:11:00,64.0,59.0,29.92,SW,221,0.0,3.0,84,0.02,,,0.02,,2013-05-10 00:11:00,
2013-05-09 20:22:00,64.0,59.0,29.92,SW,221,0.0,3.0,84,0.02,,,0.02,,2013-05-10 00:22:00,
2013-05-09 20:32:00,63.0,60.0,29.92,SW,221,0.0,3.0,89,0.02,,,0.02,,2013-05-10 00:32:00,
2013-05-09 20:42:00,63.0,60.0,29.91,West,266,0.0,2.0,89,0.02,,,0.02,,2013-05-10 00:42:00,
2013-05-09 20:52:00,63.0,60.0,29.91,West,266,0.0,2.0,89,0.02,,,0.02,,2013-05-10 00:52:00,
2013-05-09 21:01:00,63.0,60.0,29.91,West,266,0.0,2.0,89,0.02,,,0.02,,2013-05-10 01:01:00,
2013-05-09 21:11:00,63.0,60.0,29.91,West,266,0.0,2.0,89,0.02,,,0.02,,2013-05-10 01:11:00,
2013-05-09 21:22:00,63.0,60.0,29.91,West,266,0.0,0.0,91,0.00,,,0.02,,2013-05-10 01:22:00,
2013-05-09 21:32:00,62.0,60.0,29.90,West,266,0.0,0.0,93,0.00,,,0.02,,2013-05-10 01:32:00,
2013-05-09 21:42:00,62.0,60.0,29.90,West,266,0.0,0.0,93,0.00,,,0.02,,2013-05-10 01:42:00,
2013-05-09 21:52:00,62.0,60.0,29.90,West,266,0.0,0.0,93,0.00,,,0.02,,2013-05-10 01:52:00,
2013-05-09 22:02:00,62.0,60.0,29.92,West,266,0.0,0.0,93,0.00,,,0.02,,2013-05-10 02:02:00,
2013-05-09 22:11:00,62.0,60.0,29.92,West,266,0.0,3.0,94,0.00,,,0.02,,2013-05-10 02:11:00,
2013-05-09 22:21:00,62.0,60.0,29.92,West,266,0.0,3.0,94,0.00,,,0.02,,2013-05-10 02:21:00,
2013-05-09 22:32:00,62.0,60.0,29.93,West,266,0.0,1.0,93,0.00,,,0.02,,2013-05-10 02:32:00,
2013-05-09 22:42:00,62.0,60.0,29.93,West,266,0.0,0.0,92,0.00,,,0.02,,2013-05-10 02:42:00,
2013-05-09 22:52:00,62.0,60.0,29.93,West,266,0.0,0.0,92,0.00,,,0.02,,2013-05-10 02:52:00,
2013-05-09 23:01:00,62.0,59.0,29.93,West,266,0.0,1.0,91,0.01,,,0.03,,2013-05-10 03:01:00,
2013-05-09 23:11:00,62.0,59.0,29.93,West,266,0.0,1.0,91,0.01,,,0.03,,2013-05-10 03:11:00,
2013-05-09 23:22:00,62.0,60.0,29.93,West,266,0.0,0.0,92,0.01,,,0.03,,2013-05-10 03:22:00,
2013-05-09 23:33:00,61.0,59.0,29.93,West,266,0.0,0.0,93,0.03,,,0.05,,2013-05-10 03:33:00,
2013-05-09 23:43:00,61.0,59.0,29.93,West,266,0.0,0.0,93,0.03,,,0.05,,2013-05-10 03:43:00,
2013-05-09 23:53:00,61.0,59.0,29.92,West,266,0.0,0.0,94,0.03,,,0.05,,2013-05-10 03:53:00,